TimeEDT,TemperatureF,Dew PointF,Humidity,Sea Level PressureIn,VisibilityMPH,Wind Direction,Wind SpeedMPH,Gust SpeedMPH,PrecipitationIn,Events,Conditions,WindDirDegrees,DateUTC
12:52 AM,39.9,25.0,55,30.15,10.0,SSW,11.5,-,N/A,,Overcast,210,2013-10-26 04:52:00
1:52 AM,39.0,25.0,57,30.13,10.0,SW,13.8,-,N/A,,Clear,220,2013-10-26 05:52:00
2:52 AM,37.9,25.0,60,30.09,10.0,SSW,12.7,19.6,N/A,,Mostly Cloudy,210,2013-10-26 06:52:00
3:52 AM,39.0,25.0,57,30.06,10.0,SSW,11.5,19.6,N/A,,Mostly Cloudy,210,2013-10-26 07:52:00
4:52 AM,39.0,25.0,57,30.02,10.0,SSW,17.3,26.5,N/A,,Overcast,210,2013-10-26 08:52:00
5:52 AM,39.0,25.0,57,30.01,10.0,SSW,16.1,24.2,N/A,,Overcast,210,2013-10-26 09:52:00
6:52 AM,39.0,25.0,57,29.99,10.0,SW,16.1,24.2,N/A,,Overcast,220,2013-10-26 10:52:00
7:52 AM,39.0,25.0,57,29.95,10.0,SW,20.7,28.8,N/A,,Overcast,220,2013-10-26 11:52:00
8:52 AM,39.0,25.0,57,29.93,10.0,SW,18.4,31.1,N/A,,Overcast,220,2013-10-26 12:52:00
9:52 AM,41.0,26.1,55,29.91,10.0,SSW,12.7,23.0,N/A,,Overcast,210,2013-10-26 13:52:00
10:52 AM,42.1,26.1,53,29.89,10.0,SW,19.6,27.6,N/A,,Overcast,230,2013-10-26 14:52:00
11:52 AM,44.1,27.0,51,29.89,10.0,WSW,17.3,27.6,N/A,,Overcast,240,2013-10-26 15:52:00
12:52 PM,45.0,28.0,52,29.87,10.0,WSW,18.4,26.5,N/A,,Overcast,240,2013-10-26 16:52:00
1:52 PM,46.0,30.0,54,29.85,10.0,SW,13.8,25.3,N/A,,Overcast,230,2013-10-26 17:52:00
2:52 PM,48.0,30.9,52,29.85,10.0,WSW,19.6,31.1,N/A,,Overcast,250,2013-10-26 18:52:00
3:52 PM,48.9,32.0,52,29.86,10.0,WSW,11.5,23.0,N/A,,Overcast,250,2013-10-26 19:52:00
4:52 PM,48.9,33.1,54,29.86,10.0,SW,10.4,-,N/A,,Overcast,230,2013-10-26 20:52:00
5:52 PM,50.0,35.1,57,29.86,10.0,WSW,13.8,-,N/A,,Mostly Cloudy,250,2013-10-26 21:52:00
6:52 PM,45.0,37.9,76,29.91,7.0,WNW,12.7,24.2,0.01,Rain,Light Rain,290,2013-10-26 22:52:00
7:52 PM,44.1,39.0,82,29.95,10.0,West,8.1,-,0.00,,Overcast,280,2013-10-26 23:52:00
8:52 PM,44.1,39.0,82,29.98,10.0,West,8.1,-,N/A,,Overcast,280,2013-10-27 00:52:00
9:52 PM,39.9,37.0,89,29.99,10.0,West,6.9,-,N/A,,Clear,270,2013-10-27 01:52:00
10:52 PM,37.9,35.1,89,30.03,10.0,West,6.9,-,N/A,,Clear,260,2013-10-27 02:52:00
11:52 PM,36.0,34.0,93,30.04,10.0,Calm,Calm,-,N/A,,Clear,0,2013-10-27 03:52:00